Tiempo cada hora Gogolevka

Hoy, 22 Junio, Martes

Tiempo Temperatura Precipitaciones Viento Presión Humedad
00:00 +18°C° 0 mm 2 mps 742 mmHg 44%
01:00 +18°C° 0 mm 2 mps 741 mmHg 45%
02:00 +17°C° 0 mm 2 mps 741 mmHg 49%
03:00 +17°C° 0 mm 2 mps 741 mmHg 52%
04:00 +16°C° 0 mm 2 mps 741 mmHg 56%
05:00 +18°C° 0 mm 2 mps 741 mmHg 56%
06:00 +20°C° 0 mm 2 mps 742 mmHg 56%
07:00 +23°C° 0 mm 2 mps 742 mmHg 56%
08:00 +25°C° 0 mm 3 mps 742 mmHg 53%
09:00 +26°C° 0 mm 3 mps 741 mmHg 50%
10:00 +28°C° 0 mm 4 mps 741 mmHg 47%
11:00 +29°C° 0 mm 4 mps 741 mmHg 42%
12:00 +30°C° 0 mm 4 mps 741 mmHg 38%
13:00 +33°C° 0 mm 4 mps 741 mmHg 33%
14:00 +33°C° 0 mm 4 mps 741 mmHg 32%
15:00 +33°C° 0 mm 4 mps 741 mmHg 30%
16:00 +33°C° 0 mm 4 mps 740 mmHg 29%
17:00 +31°C° 0 mm 3 mps 740 mmHg 33%
18:00 +30°C° 0 mm 3 mps 740 mmHg 36%
19:00 +30°C° 0 mm 2 mps 740 mmHg 40%
20:00 +28°C° 0 mm 3 mps 740 mmHg 45%
21:00 +26°C° 0 mm 3 mps 740 mmHg 50%
22:00 +24°C° 0 mm 3 mps 740 mmHg 55%
23:00 +24°C° 0 mm 3 mps 740 mmHg 60%

Mañana, 23 Junio, Miércoles

Tiempo Temperatura Precipitaciones Viento Presión Humedad
00:00 +22°C° 0 mm 3 mps 740 mmHg 65%
01:00 +21°C° 0 mm 3 mps 740 mmHg 69%
02:00 +21°C° 0 mm 3 mps 740 mmHg 71%
03:00 +20°C° 0 mm 3 mps 739 mmHg 73%
04:00 +20°C° 0 mm 3 mps 739 mmHg 75%
05:00 +22°C° 0 mm 4 mps 739 mmHg 69%
06:00 +25°C° 0 mm 4 mps 739 mmHg 63%
07:00 +27°C° 0 mm 5 mps 739 mmHg 57%
08:00 +28°C° 0 mm 5 mps 739 mmHg 51%
09:00 +30°C° 0 mm 5 mps 739 mmHg 45%
10:00 +32°C° 0 mm 5 mps 739 mmHg 39%
11:00 +33°C° 0 mm 5 mps 738 mmHg 38%
12:00 +33°C° 0 mm 5 mps 738 mmHg 37%
13:00 +33°C° 0 mm 5 mps 738 mmHg 36%
14:00 +29°C° 0.2 mm 6 mps 738 mmHg 45%
15:00 +27°C° 0.2 mm 6 mps 739 mmHg 55%
16:00 +23°C° 0.2 mm 6 mps 739 mmHg 64%
17:00 +23°C° 0.3 mm 5 mps 739 mmHg 66%
18:00 +24°C° 0.3 mm 3 mps 739 mmHg 68%
19:00 +23°C° 0.3 mm 2 mps 739 mmHg 70%
20:00 +21°C° 0.1 mm 3 mps 739 mmHg 75%
21:00 +20°C° 0.1 mm 3 mps 739 mmHg 80%
22:00 +19°C° 0.1 mm 3 mps 740 mmHg 85%
23:00 +18°C° 0 mm 3 mps 740 mmHg 85%

Pasado mañana, 24 Junio, Jueves

Tiempo Temperatura Precipitaciones Viento Presión Humedad
00:00 +18°C° 0 mm 3 mps 740 mmHg 85%
01:00 +17°C° 0 mm 2 mps 740 mmHg 85%
02:00 +17°C° 0 mm 2 mps 740 mmHg 84%
03:00 +17°C° 0 mm 2 mps 740 mmHg 82%
04:00 +17°C° 0 mm 2 mps 740 mmHg 81%
05:00 +17°C° 0 mm 2 mps 740 mmHg 78%
06:00 +19°C° 0 mm 1 mps 740 mmHg 75%
07:00 +19°C° 0 mm 1 mps 740 mmHg 72%
08:00 +20°C° 0 mm 1 mps 740 mmHg 67%
09:00 +22°C° 0 mm 1 mps 740 mmHg 61%
10:00 +23°C° 0 mm 1 mps 740 mmHg 56%
11:00 +24°C° 0 mm 1 mps 740 mmHg 54%
12:00 +25°C° 0 mm 2 mps 740 mmHg 51%
13:00 +26°C° 0 mm 2 mps 740 mmHg 48%
14:00 +27°C° 0 mm 2 mps 740 mmHg 49%
15:00 +27°C° 0 mm 3 mps 740 mmHg 49%
16:00 +27°C° 0 mm 3 mps 739 mmHg 49%
17:00 +27°C° 0 mm 2 mps 739 mmHg 51%
18:00 +27°C° 0 mm 1 mps 739 mmHg 53%
19:00 +26°C° 0 mm 1 mps 739 mmHg 55%
20:00 +25°C° 0 mm 1 mps 738 mmHg 58%
21:00 +24°C° 0 mm 1 mps 738 mmHg 61%
22:00 +23°C° 0 mm 2 mps 738 mmHg 64%
23:00 +23°C° 0 mm 2 mps 738 mmHg 66%

25 Junio, Viernes

Tiempo Temperatura Precipitaciones Viento Presión Humedad
00:00 +21°C° 0 mm 2 mps 737 mmHg 68%
01:00 +21°C° 0 mm 2 mps 737 mmHg 70%
02:00 +20°C° 0 mm 2 mps 737 mmHg 72%
03:00 +20°C° 0 mm 3 mps 737 mmHg 75%
04:00 +19°C° 0 mm 3 mps 736 mmHg 77%
05:00 +21°C° 0 mm 3 mps 736 mmHg 72%
06:00 +24°C° 0 mm 3 mps 736 mmHg 67%
07:00 +26°C° 0 mm 4 mps 736 mmHg 61%
08:00 +27°C° 0 mm 4 mps 735 mmHg 56%
09:00 +29°C° 0 mm 5 mps 735 mmHg 51%
10:00 +32°C° 0 mm 6 mps 735 mmHg 46%
11:00 +32°C° 0 mm 5 mps 735 mmHg 44%
12:00 +33°C° 0 mm 5 mps 734 mmHg 41%
13:00 +33°C° 0 mm 4 mps 734 mmHg 38%
14:00 +30°C° 0.3 mm 4 mps 734 mmHg 49%
15:00 +27°C° 0.3 mm 4 mps 734 mmHg 61%
16:00 +25°C° 0.3 mm 4 mps 734 mmHg 72%
17:00 +25°C° 0.2 mm 3 mps 734 mmHg 72%
18:00 +25°C° 0.2 mm 2 mps 734 mmHg 71%
19:00 +26°C° 0.2 mm 1 mps 734 mmHg 71%
20:00 +25°C° 0.1 mm 2 mps 734 mmHg 74%
21:00 +24°C° 0.1 mm 2 mps 734 mmHg 78%
22:00 +23°C° 0.1 mm 2 mps 734 mmHg 82%
23:00 +21°C° 0 mm 3 mps 734 mmHg 83%

26 Junio, Sábado

Tiempo Temperatura Precipitaciones Viento Presión Humedad
00:00 +21°C° 0 mm 3 mps 734 mmHg 83%
01:00 +21°C° 0 mm 3 mps 734 mmHg 84%
02:00 +20°C° 0 mm 3 mps 734 mmHg 85%
03:00 +19°C° 0 mm 3 mps 734 mmHg 85%
04:00 +19°C° 0 mm 3 mps 734 mmHg 85%
05:00 +20°C° 0 mm 3 mps 734 mmHg 80%
06:00 +21°C° 0 mm 3 mps 734 mmHg 74%
07:00 +24°C° 0 mm 3 mps 735 mmHg 68%
08:00 +25°C° 0 mm 2 mps 735 mmHg 63%
09:00 +27°C° 0 mm 2 mps 734 mmHg 58%
10:00 +28°C° 0 mm 1 mps 734 mmHg 53%
11:00 +29°C° 0 mm 2 mps 734 mmHg 49%
12:00 +30°C° 0 mm 2 mps 734 mmHg 45%
13:00 +31°C° 0 mm 2 mps 734 mmHg 41%
14:00 +32°C° 0 mm 2 mps 734 mmHg 41%
15:00 +33°C° 0 mm 3 mps 733 mmHg 41%
16:00 +33°C° 0 mm 3 mps 733 mmHg 41%
17:00 +31°C° 0 mm 2 mps 733 mmHg 44%
18:00 +30°C° 0 mm 2 mps 733 mmHg 48%
19:00 +30°C° 0 mm 2 mps 733 mmHg 51%
20:00 +28°C° 0 mm 2 mps 733 mmHg 57%
21:00 +27°C° 0 mm 2 mps 733 mmHg 63%
22:00 +25°C° 0 mm 2 mps 733 mmHg 69%
23:00 +24°C° 0 mm 2 mps 733 mmHg 72%

27 Junio, Domingo

Tiempo Temperatura Precipitaciones Viento Presión Humedad
00:00 +24°C° 0 mm 2 mps 733 mmHg 75%
01:00 +23°C° 0 mm 2 mps 732 mmHg 78%
02:00 +22°C° 0.1 mm 3 mps 732 mmHg 80%
03:00 +21°C° 0.1 mm 3 mps 732 mmHg 82%
04:00 +21°C° 0.1 mm 3 mps 732 mmHg 83%
05:00 +22°C° 0 mm 3 mps 733 mmHg 79%
06:00 +22°C° 0 mm 4 mps 733 mmHg 74%
07:00 +23°C° 0 mm 5 mps 733 mmHg 70%
08:00 +25°C° 0 mm 5 mps 734 mmHg 65%
09:00 +26°C° 0 mm 5 mps 734 mmHg 61%
10:00 +27°C° 0 mm 5 mps 734 mmHg 56%
11:00 +27°C° 0 mm 5 mps 734 mmHg 56%
12:00 +27°C° 0 mm 5 mps 734 mmHg 55%
13:00 +27°C° 0 mm 6 mps 734 mmHg 55%
14:00 +27°C° 0 mm 5 mps 734 mmHg 52%
15:00 +28°C° 0 mm 4 mps 734 mmHg 50%
16:00 +28°C° 0 mm 4 mps 734 mmHg 48%
17:00 +27°C° 0 mm 4 mps 734 mmHg 49%
18:00 +26°C° 0 mm 5 mps 734 mmHg 51%
19:00 +26°C° 0 mm 5 mps 734 mmHg 52%
20:00 +23°C° 0 mm 5 mps 734 mmHg 58%
21:00 +21°C° 0 mm 5 mps 734 mmHg 63%
22:00 +19°C° 0 mm 5 mps 734 mmHg 68%
23:00 +18°C° 0 mm 4 mps 734 mmHg 71%
Mostrar más

Necesitamos Su Consentimiento

Meteoprog y nuestros Proveedores de Servicios pueden almacenar y acceder a sus datos personales como cookies, identificadores de dispositivo u otras tecnologías similares de su dispositivo y procesar dichos datos para personalizar contenido y anuncios, además de ofrecer funciones de redes sociales y analizar el tráfico.

  • Almacenar y/o acceder a información en su dispositivo

    Se puede almacenar o acceder a cookies, identificadores de dispositivo u otra información de su dispositivo para los fines anteriormente indicados.

  • Anuncios y contenido personalizados, medición de anuncios y contenido, percepciones del público, y desarrollo de productos

    Los anuncios y el contenido pueden personalizarse en base a su perfil. Se pueden añadir más datos para personalizar mejor los anuncios y contenidos. Se puede medir el rendimiento de los anuncios y contenidos. Se puede obtener la percepción sobre el público que ha visto los anuncios y contenidos. Dichos datos pueden usarse para desarrollar o mejorar la experiencia del usuario, sistemas y software.

Al hacer clic en ‘Estoy De Acuerdo’ usted permitirá el uso de las cookies, identificadores de dispositivo, balizas web u otras tecnologías similares indicadas. Su configuración puede cambiarse desde el navegador de su dispositivo.

Para ciertos fines, los intereses legítimos pueden ser considerados por encima del consentimiento. Puede leer más sobre ello en nuestra Política de Privacidad y Cookies.